Weather History for Moline, IL

Change the Weather History Date:

Tuesday, November 1, 2011

  Actual Average Record
Temperature  
Mean Temperature 55 °F 47 °F  
Max Temperature 74 °F 57 °F 80 °F (2000)
Min Temperature 36 °F 38 °F 19 °F (1993)
Degree Days  
Heating Degree Days 10 18  
Month to date heating degree days 10 18  
Since 1 July heating degree days 524 500  
Cooling Degree Days 0 0  
Month to date cooling degree days 0 0  
Year to date cooling degree days 1126 1003  
Growing Degree Days 4 (Base 50)    
Moisture  
Dew Point 37 °F    
Average Humidity 56    
Maximum Humidity 76    
Minimum Humidity 35    
Precipitation  
Precipitation 0.00 in 0.10 in 1.49 in (1983)
Month to date precipitation 0.00 0.10  
Year to date precipitation 27.73 33.32  
Snow  
Snow 0.00 in 0.00 in - ()
Month to date snowfall 0.0 0.0  
Since 1 July snowfall 0.0 0.0  
Since 1 September snowfall 0.0 0.0  
Snow Depth 0.00 in    
Sea Level Pressure  
Sea Level Pressure 30.01 in    
Wind  
Wind Speed 8 mph (SSE)    
Max Wind Speed 20 mph    
Max Gust Speed 25 mph    
Visibility 10 miles    
Events      
T = Trace of Precipitation, MM = Missing Value Source: NWS Daily Summary

Daily Weather History Graph

Daily Weather History Graph

Search for Another Location

Airport:

Trip Planner

Search our weather history database for the weather conditions in past years. The results will help you decide how hot, cold, wet, or windy it might be!

Date:

Astronomy

Nov. 01, 2011 Rise Set
Actual Time 7:33 AM CDT 5:57 PM CDT
Civil Twilight 7:04 AM CDT 6:26 PM CDT
Nautical Twilight 6:31 AM CDT 6:58 PM CDT
Astronomical Twilight 5:59 AM CDT 7:30 PM CDT
Moon 1:20 PM CDT (11/1) 11:39 PM CDT (11/1)
Length of Visible Light 11h 21m
Length of Day
10h 23m
Waxing Crescent, 40% of the Moon is Illuminated
Nov 1
Waxing Crescent
Nov 2
First Quarter
Nov 10
Full
Nov 18
Last Quarter
Nov 25
New

Hourly Weather History & Observations

Time (CDT) Temp. Windchill Dew Point Humidity Pressure Visibility Wind Dir Wind Speed Gust Speed Precip Events Conditions
12:52 AM 35.1 °F - 28.9 °F 78% 30.09 in 10.0 mi Calm Calm - N/A   Clear
1:52 AM 39.0 °F 35.7 °F 30.0 °F 70% 30.09 in 10.0 mi SE 4.6 mph - N/A   Clear
2:52 AM 39.0 °F 34.8 °F 30.9 °F 73% 30.09 in 10.0 mi SE 5.8 mph - N/A   Clear
3:52 AM 39.0 °F 34.0 °F 32.0 °F 76% 30.08 in 10.0 mi SE 6.9 mph - N/A   Clear
4:52 AM 39.0 °F 34.8 °F 30.9 °F 73% 30.07 in 10.0 mi ESE 5.8 mph - N/A   Clear
5:52 AM 39.9 °F 35.1 °F 30.9 °F 70% 30.06 in 10.0 mi SE 6.9 mph - N/A   Clear
6:52 AM 39.0 °F - 30.9 °F 73% 30.06 in 10.0 mi Calm Calm - N/A   Clear
7:52 AM 39.0 °F 36.8 °F 30.9 °F 73% 30.06 in 10.0 mi East 3.5 mph - N/A   Clear
8:52 AM 45.0 °F 40.1 °F 32.0 °F 60% 30.06 in 10.0 mi South 9.2 mph - N/A   Clear
9:52 AM 51.1 °F - 35.1 °F 54% 30.06 in 10.0 mi SSW 8.1 mph - N/A   Clear
10:52 AM 57.0 °F - 39.0 °F 51% 30.05 in 10.0 mi Variable 4.6 mph - N/A   Clear
11:52 AM 64.0 °F - 41.0 °F 43% 30.03 in 10.0 mi SSW 10.4 mph - N/A   Clear
12:52 PM 68.0 °F - 43.0 °F 40% 29.99 in 10.0 mi South 10.4 mph 19.6 mph N/A   Clear
1:52 PM 71.6 °F - 44.6 °F 38% 29.95 in 10.0 mi South 12.7 mph 20.7 mph N/A   Clear
2:52 PM 73.0 °F - 45.0 °F 37% 29.93 in 10.0 mi South 16.1 mph 23.0 mph N/A   Clear
3:52 PM 73.0 °F - 45.0 °F 37% 29.92 in 10.0 mi South 16.1 mph 25.3 mph N/A   Clear
4:52 PM 71.1 °F - 44.1 °F 38% 29.92 in 10.0 mi South 10.4 mph 23.0 mph N/A   Clear
5:52 PM 66.0 °F - 44.1 °F 45% 29.93 in 10.0 mi South 8.1 mph - N/A   Clear
6:52 PM 66.0 °F - 44.1 °F 45% 29.94 in 10.0 mi South 10.4 mph - N/A   Clear
7:52 PM 64.9 °F - 42.1 °F 43% 29.95 in 10.0 mi South 12.7 mph 21.9 mph N/A   Clear
8:52 PM 64.9 °F - 37.9 °F 37% 29.96 in 10.0 mi South 15.0 mph - N/A   Clear
9:52 PM 62.1 °F - 37.9 °F 41% 29.97 in 10.0 mi South 13.8 mph - N/A   Clear
10:52 PM 61.0 °F - 37.0 °F 41% 29.96 in 10.0 mi South 17.3 mph - N/A   Clear
11:52 PM 59.0 °F - 37.0 °F 44% 29.97 in 10.0 mi South 16.1 mph - N/A   Clear